This is the latest recevied weather packets stored in our database for station/object KD5BIG-13. If no packets are shown the sender has not sent any weather packets the latest 10 day(s).
| Time | Temp. | Humidity | Pressure | Rain* | Wind** | Luminosity | Snow |
|---|---|---|---|---|---|---|---|
| 1778005990 | 25.56° C | 72% | 1015 hPa | 0 mm | - | 236 W/m² | - |
| 1778005687 | 25.56° C | 71% | 1015.2 hPa | 0 mm | - | 313 W/m² | - |
| 1778005383 | 25.56° C | 70% | 1014.9 hPa | 0 mm | - | 368 W/m² | - |
| 1778005080 | 25.56° C | 72% | 1015.2 hPa | 0 mm | - | 333 W/m² | - |
| 1778004777 | 25.56° C | 71% | 1015.1 hPa | 0 mm | - | 336 W/m² | - |
| 1778004474 | 25.56° C | 70% | 1015.1 hPa | 0 mm | - | 283 W/m² | - |
| 1778004170 | 25.56° C | 69% | 1015.1 hPa | 0 mm | - | 281 W/m² | - |
| 1778003867 | 25.56° C | 71% | 1015.2 hPa | 0 mm | - | 353 W/m² | - |
| 1778003563 | 25.56° C | 69% | 1015.2 hPa | 0 mm | - | 401 W/m² | - |
| 1778003260 | 25.56° C | 71% | 1015.3 hPa | 0 mm | - | 344 W/m² | - |
| 1778002957 | 25.56° C | 72% | 1015.2 hPa | 0 mm | - | 368 W/m² | - |
| 1778002653 | 25.56° C | 69% | 1015.3 hPa | 0 mm | - | 418 W/m² | - |
| 1778002350 | 25.56° C | 71% | 1015.4 hPa | 0 mm | - | 469 W/m² | - |
| 1778002047 | 25.56° C | 68% | 1015.3 hPa | 0 mm | - | 344 W/m² | - |
| 1778001744 | 26.11° C | 69% | 1015.5 hPa | 0 mm | - | 496 W/m² | - |
| 1778001443 | 26.11° C | 69% | 1015.4 hPa | 0 mm | - | 348 W/m² | - |
| 1778001141 | 25.56° C | 69% | 1015.5 hPa | 0 mm | - | 430 W/m² | - |
| 1778000837 | 25.56° C | 68% | 1015.6 hPa | 0 mm | - | 454 W/m² | - |
| 1778000535 | 25.56° C | 70% | 1015.5 hPa | 0 mm | - | 897 W/m² | - |
| 1778000230 | 26.11° C | 68% | 1015.5 hPa | 0 mm | - | 371 W/m² | - |
| 1777999926 | 26.11° C | 73% | 1015.5 hPa | 0 mm | - | 512 W/m² | - |
| 1777999621 | 25.56° C | 70% | 1015.4 hPa | 0 mm | - | 442 W/m² | - |
| 1777999319 | 25.56° C | 68% | 1015.6 hPa | 0 mm | - | 850 W/m² | - |
| 1777999017 | 25.56° C | 68% | 1015.6 hPa | 0 mm | - | 797 W/m² | - |
| 1777998715 | 25.56° C | 70% | 1015.6 hPa | 0 mm | - | 1013 W/m² | - |
* Rain latest hour (hover to see other rain measurements)
** Current wind speed in m/s (hover to see current wind gust speed)